Starlink 31846

operational
NORAD ID: 60126 Int'l Des: 2024-118 Owner: SPXS Country: US Constellation: starlink
LEOCIRCULAR

About Starlink 31846

Description loading...

Live Position

Loading 3D Globe...

Upcoming Passes

Altitude History

Altitude vs Time

uPlot chart will show altitude changes over time

Two-Line Element Set

1 60126U 24118P 25350.32737539 .00001606 00000-0 66362-4 0 9995
2 60126 53.1611 53.9033 0001169 103.1745 256.9387 15.30193861 82934
Epoch: Dec 16, 2025 • Age: 13 hours

Current Status

Altitude 476.5 km
Velocity 7.63 km/s
Sub-Earth Point 29.36°N, 42.07°E
Launch Date Jun 24, 2024
Age 1.4 years
Type internet

Technical Details

Classification Payload
Mass 730.00 kg
Dry Mass 700.00 kg
Total Mass 730.00 kg
Length 0.30 m
Diameter 4.10 m
Span 29.00 m
Shape Box + pan
Manufacturer SPXS
Bus Type Starlink V2M
Phase Status In Orbit
Owner/State SPXS/US

Large Constellations

Loading constellations...